Location: Unspecified
(20.0000°S, 0.0000°E)
Time: 10:41:25
(UTC+00:00)

OTV 5 (USA 277) - Pass Details

Date: 24 May 2019
Orbit: 310 x 325 km, 54.5° (Epoch: 08 May)

Event Time Altitude Azimuth Distance (km) Brightness Sun altitude
Exits shadow 04:47:52 30° 59° (ENE) 617 ? -22.4°
Drops below altitude 10° 04:49:28 10° 46° (NE) 1,239 ? -22.1°
Sets 04:51:27 0° 41° (NE) 2,065 ? -21.6°
